CZ-4C R/B (44210 NORAD) Tracking and Keplerian Element Data

This shows tracking and keplerian element data for the satellite.

Feedback or suggestion? Click here.




ElementValue
Catalog44210
NameCZ-4C R/B
Epoch Orbit452
Epoch Day149.00678974
Epoch Year2019
RAAN158.3167
Inclination97.5229
Eccentricity0.0165419
Argument of Perigee263.5806
Mean Anonmoly94.6597
Mean Motion15.59796747
Decay Rate0.00016396
L11 44210U 19024D 19149.00678974 .00016396 23597-5 10847-3 0 9991
L22 44210 97.5229 158.3167 0165419 263.5806 94.6597 15.59796747 4525

Live tracking and technical data element details for CZ-4C R/B (NORAD 44210). CZ-4C R/B can be tracked NOW for your location showing map with azimuth and elevation plus other details from your city location.

Track the satellite on the map from your city or location and see movement details for azimuth, elevation, latitude, longitude, range, height, and movement on the map or in text.







IsCatalogInMostPopularTable: catalog: 44210, numindb: 23
Update: records affected: 1



GetName: 44210 CZ-4C R/B

Hit Count: updated at: Tue, 23 Jul 2019 02:31:37 GMT